Location: Unspecified
(37.3333°N, 0.0000°E)
Time: 19:36:05
(UTC+00:00)

Tiangong 2 - Pass Details

Date: 27 May 2019
Orbit: 376 x 389 km, 42.8° (Epoch: 18 June)

Event Time Altitude Azimuth Distance (km) Brightness Sun altitude
Rises 20:21:32 0° 292° (WNW) 2,240 6.5 -12.4°
Reaches altitude 10° 20:23:43 10° 303° (WNW) 1,386 5.3 -12.8°
Maximum altitude 20:26:35 33° 9° (N) 662 2.5 -13.2°
Enters shadow 20:29:05 12° 73° (ENE) 1,248 3.3 -13.6°
